Regional Weather Roundup
Issued by NWS Kansas City/Pleasant Hill, MO

Home | Current Version | Previous Version | Graphics & Text | Print | Product List | Glossary Off
Versions: 1 2 3 4 5 6 7 8 9 10 11 12 13 14 15 16 17 18 19 20 21 22 23 24 25 26 27

000
ASUS43 KEAX 250410
RWREAX

WEATHER ROUNDUP FOR EASTERN KANSAS AND NORTHWEST MISSOURI
NATIONAL WEATHER SERVICE KANSAS CITY/PLEASANT HILL MO
1100 PM CDT SUN SEP 24 2017

KSZ040-057-103>105-MOZ028-029-037-043-250500-
...KANSAS CITY METROPOLITAN AREA...

CITY           SKY/WX    TMP DP  RH WIND       PRES   REMARKS
K.C. INTL      CLEAR     75  67  76 S9        29.94S
K.C. DOWNTOWN  CLEAR     81  68  64 SE10G20   29.93S
LEES SUMMIT    CLEAR     76  69  79 S10       29.95S
OLATHE - IXD   CLEAR     75  67  76 SE8       29.95S
OLATHE - OJC   CLEAR     74  68  81 S9        29.95S
LAWRENCE       CLEAR     72  68  87 E5        29.93R

$$

MOZ001>008-011>017-020>025-030>033-038>040-044>046-053-054-250500-
...NORTHERN AND CENTRAL MISSOURI...

CITY           SKY/WX    TMP DP  RH WIND       PRES   REMARKS
ST. JOSEPH     CLEAR     76  68  76 S6        29.93R
MOSBY          CLEAR     72  64  78 CALM      29.94R
WARRENSBURG    PTCLDY    72  63  73 S5        29.94F
WHITEMAN AFB   CLEAR     71  71 100 SW5       29.94S
CLINTON        CLEAR     68  64  88 S3        29.96S
SEDALIA        CLOUDY    74  66  76 S7        29.96F
WARSAW         NOT AVBL
CHILLICOTHE      N/A     69  67  93 CALM      29.96R
KIRKSVILLE     CLEAR     69  62  78 SE3       29.97F

$$

MOZ041-047>049-056>058-063>065-088>090-097-250500-
...EASTERN AND SOUTHERN MISSOURI...

CITY           SKY/WX    TMP DP  RH WIND       PRES   REMARKS
ST. LOUIS INTL CLEAR     80  64  58 SW6       29.98F
SPIRIT OF STL  CLEAR     74  67  78 CALM      29.96F
COLUMBIA       CLEAR     74  67  78 SW6       29.97R
JEFFERSON CITY CLOUDY    74  65  73 E3        29.95F
ROLLA          CLEAR     69  63  81 S7        30.00F
OSAGE BEACH    CLEAR     70  66  87 E5        29.99R
SPRINGFIELD    CLEAR     69  65  86 SE8       29.98S
BRANSON        CLEAR     68  66  94 CALM      30.01S
JOPLIN         CLEAR     74  66  76 SE6       29.96R
WEST PLAINS    CLEAR     67  63  87 CALM      30.03R

$$

IAZ060-094-KSZ022-034>040-054-083-096-NEZ052-066-093-250500-
...KANSAS...SOUTHEAST NEBRASKA AND IOWA...

CITY           SKY/WX    TMP DP  RH WIND       PRES   REMARKS
TOPEKA         PTCLDY    75  68  78 SE7       29.92R
MANHATTAN      CLEAR     76  65  68 W3        29.91R
EMPORIA        PTCLDY    75  65  70 SE12      29.92F
CHANUTE        CLEAR     73  68  84 E5        29.94S
WICHITA        CLOUDY    75  66  73 SE10      29.90S
OMAHA          CLOUDY    66  60  81 N12       29.94R
LINCOLN        LGT RAIN  64  63  96 N10       29.96F
FALLS CITY     PTCLDY    73  65  75 SE6       29.91S
LAMONI         CLEAR     75  64  68 S6        29.95R
DES MOINES     PTCLDY    75  63  66 SE8       29.92S

$$





USA.gov is the U.S. government's official web portal to all federal, state and local government web resources and services.